Location: Newark
(33.6333°S, 78.8500°W)
Time: 01:41:39
(UTC+00:00)

Courier 1B - Pass Details

Date: 24 September 2019
Orbit: 962 x 1209 km, 28.3° (Epoch: 18 October)

Event Time Altitude Azimuth Distance (km) Brightness Sun altitude
Rises 23:31:32 0° 278° (W) 4,072 12.9 -4.7°
Reaches altitude 10° 23:34:28 10° 281° (W) 3,085 11.7 -5.3°
Maximum altitude 23:41:56 58° 358° (N) 1,294 8.2 -6.8°
Drops below altitude 10° 23:48:57 10° 75° (ENE) 2,910 9.3 -8.3°
Enters shadow 23:49:08 - 75° (ENE) 2,968 9.4 -8.3°
Sets 23:51:39 0° 78° (ENE) 3,827 - -8.8°
